This is the latest recevied weather packets stored in our database for station/object DM1RG-6. If no packets are shown the sender has not sent any weather packets the latest 10 day(s).
| Time | Temp. | Humidity | Pressure | Rain* | Wind** | Luminosity | Snow |
|---|---|---|---|---|---|---|---|
| 1777462924 | 13.33° C | 33% | 1029.4 hPa | 0 mm | - | - | - |
| 1777462564 | 12.22° C | 34% | 1029.4 hPa | 0 mm | - | - | - |
| 1777462203 | 12.78° C | 32% | 1029.4 hPa | 0 mm | - | - | - |
| 1777461844 | 12.78° C | 33% | 1029.3 hPa | 0 mm | - | - | - |
| 1777461483 | 12.22° C | 34% | 1029.5 hPa | 0 mm | - | - | - |
| 1777461124 | 12.22° C | 34% | 1029.6 hPa | 0 mm | - | - | - |
| 1777458963 | 11.67° C | 35% | 1029.8 hPa | 0 mm | - | - | - |
| 1777458243 | 12.78° C | 35% | 1029.4 hPa | 0 mm | - | - | - |
| 1777457884 | 11.67° C | 35% | 1029.7 hPa | 0 mm | - | - | - |
| 1777457524 | 12.22° C | 36% | 1029.4 hPa | 0 mm | - | - | - |
| 1777457164 | 12.22° C | 36% | 1029.6 hPa | 0 mm | - | - | - |
| 1777456443 | 10.56° C | 37% | 1029.6 hPa | 0 mm | - | - | - |
| 1777455363 | 11.11° C | 36% | 1029.5 hPa | 0 mm | - | - | - |
| 1777455003 | 11.67° C | 35% | 1029.4 hPa | 0 mm | - | - | - |
| 1777454643 | 10.56° C | 37% | 1029.4 hPa | 0 mm | - | - | - |
| 1777454284 | 11.67° C | 37% | 1029.7 hPa | 0 mm | - | - | - |
| 1777453923 | 10.56° C | 36% | 1029.4 hPa | 0 mm | - | - | - |
| 1777453564 | 11.11° C | 37% | 1029.7 hPa | 0 mm | - | - | - |
| 1777453204 | 11.11° C | 37% | 1029.7 hPa | 0 mm | - | - | - |
| 1777452844 | 10.56° C | 37% | 1029.8 hPa | 0 mm | - | - | - |
| 1777452484 | 10.56° C | 37% | 1029.6 hPa | 0 mm | - | - | - |
| 1777452123 | 10.56° C | 38% | 1029.9 hPa | 0 mm | - | - | - |
| 1777451764 | 10.56° C | 38% | 1029.6 hPa | 0 mm | - | - | - |
| 1777451404 | 10.56° C | 37% | 1029.8 hPa | 0 mm | - | - | - |
| 1777451043 | 10.56° C | 39% | 1029.7 hPa | 0 mm | - | - | - |
* Rain latest hour (hover to see other rain measurements)
** Current wind speed in m/s (hover to see current wind gust speed)